SCP
0 0 0 0 0 0 0 0 0 0 0 0 0 0 0 0 0 0 0 0 0 0 0 0 0 0 0 0 0 0 0 0 0 0 0 0 0 0 0 0 0 0 0
0 0 0 0 0 0 0 0 0 0 0 0 0 0 0 0 0 0 0 0 0 0 0 0 0 0 0 0 0 0 0 0 0 0 0 0 0 0 0 0 0 0 0
0 0 0 0 0 0 0 0 0 0 0 0 0 0 0 0 0 0 0 0 0 0 0 0 0 0 0 0 0 0 0 0 0 0 0 0 0 0 0 0 0 0 0
0 0 0 0 0 0 0 0 0 0 0 0 0 0 0 0 0 0 0 0 0 0 0 0 0 0 0 0 0 0 0 0 0 0 0 0 0 0 0 0 0 0 0
0 1 1 1 0 0 0 0 0 0 0 0 0 0 0 0 0 0 0 0 0 0 0 0 0 0 0 0 0 0 0 0 0 0 0 0 0 0 0 0 0 0 0
1 1 1 1 1 1 0 0 0 0 0 0 0 0 0 0 0 0 0 0 0 0 0 0 0 0 0 0 0 0 0 0 0 0 0 0 0 0 0 0 0 0 0
1 1 1 1 1 1 0 0 0 0 0 0 0 0 0 0 0 0 0 0 0 0 0 0 0 0 0 0 0 0 0 0 0 0 0 0 0 0 0 0 0 0 0
1 1 1 1 1 1 1 0 0 0 0 0 0 0 0 0 0 0 0 0 0 0 0 0 0 0 0 0 0 0 0 0 0 0 0 0 0 0 0 0 0 0 0
1 1 1 1 1 1 1 1 0 0 0 0 0 0 0 0 0 0 0 0 0 0 0 0 0 0 0 0 0 0 0 0 0 0 0 0 0 0 0 0 0 0 0
1 1 1 1 1 1 1 1 0 0 0 0 0 0 0 0 0 0 0 0 0 0 0 0 0 0 0 0 0 0 0 0 0 0 0 0 0 0 0 0 0 0 0
1 1 1 1 1 1 1 0 0 0 0 0 0 0 0 0 0 0 0 0 0 0 0 0 0 0 0 0 0 0 0 0 0 0 0 0 0 0 0 0 0 0 0
1 1 1 1 1 1 1 1 0 0 0 0 0 0 0 0 0 0 0 0 0 0 0 0 0 0 0 0 0 0 0 0 0 0 0 0 0 0 0 0 0 0 0
1 1 1 1 1 1 1 1 1 0 0 0 0 0 0 0 0 0 0 0 0 0 0 0 0 0 0 0 0 0 0 0 0 0 0 0 0 0 0 0 0 0 0
1 1 1 1 1 1 1 1 1 1 1 0 0 0 0 0 0 0 0 0 0 0 0 0 0 0 0 0 0 0 0 0 0 0 0 0 0 0 0 0 0 0 0
1 1 1 1 2 2 2 1 1 1 1 1 0 0 0 0 0 0 0 0 0 0 0 0 0 0 0 0 0 0 0 0 0 0 0 0 0 0 0 0 0 0 0
1 1 1 2 2 2 2 2 2 1 1 1 1 0 0 0 0 0 0 0 0 0 0 0 0 0 0 0 0 0 0 0 0 0 0 0 0 0 0 0 0 0 0
0 1 1 1 2 2 2 2 2 2 1 1 1 0 0 0 0 0 0 0 0 0 0 0 0 0 0 0 0 0 0 0 0 0 0 0 0 0 0 0 0 0 0
0 0 1 1 2 2 2 3 3 2 2 1 1 1 0 0 0 0 0 0 0 0 0 0 0 0 0 0 0 0 0 0 0 0 0 0 0 0 0 0 0 0 0
0 0 0 1 1 2 2 3 3 3 2 2 1 1 0 0 0 0 0 0 0 0 0 0 0 0 0 0 0 0 0 0 0 0 0 0 0 0 0 0 0 0 0
0 0 0 0 1 2 3 3 3 3 3 2 1 1 0 0 0 0 0 0 0 0 0 0 0 0 0 0 0 0 0 0 0 0 0 0 0 0 0 0 0 0 0
0 0 0 1 1 3 3 3 3 3 2 2 1 0 0 0 0 0 0 0 0 0 0 0 0 0 0 0 0 0 0 0 0 0 0 0 0 0 0 0 0 0 0
0 0 0 1 2 3 3 3 3 2 1 1 0 0 0 0 0 0 0 0 0 0 0 0 0 0 0 0 0 0 0 0 0 0 0 0 0 0 0 0 0 0 0
0 0 1 2 3 3 3 2 1 0 0 0 0 0 0 0 0 0 0 0 0 0 0 0 0 0 0 0 0 0 0 0 0 0 0 0 0 0 0 0 0 0 0
0 1 1 2 3 3 3 1 0 0 0 0 0 0 0 0 0 0 0 0 0 0 0 0 0 0 0 0 0 0 0 0 0 0 0 0 0 0 0 0 0 0 0
0 1 1 2 3 2 1 0 0 0 0 0 0 0 0 0 0 0 0 0 0 0 0 0 0 0 0 0 0 0 0 0 0 0 0 0 0 0 0 0 0 0 0
0 0 1 2 2 2 1 0 0 0 0 0 0 0 0 0 0 0 0 0 0 0 0 0 0 0 0 0 0 0 0 0 0 0 0 0 0 0 0 0 0 0 0
Wind_Speed
10 15 17 17 16 15 14 13 11 10 8 7 8 11 12 11 10 8 7 7 7 7 8 9 8 6 8 10 10 9 7 6 6 6 6 6 5 5 4 3 3 4 1
13 15 17 17 16 15 14 13 11 9 8 7 8 10 10 10 8 7 6 7 7 7 7 9 10 10 10 9 8 6 5 4 4 5 3 1 1 5 5 3 5 3 2
14 15 17 15 16 15 14 12 11 9 7 7 9 10 10 8 7 7 6 6 7 7 7 7 8 9 9 8 6 5 4 4 4 3 3 4 1 3 7 5 4 5 5
14 14 15 16 16 15 14 12 10 9 8 9 10 10 9 8 7 7 6 6 7 7 7 7 7 7 7 6 5 4 4 4 4 3 4 4 4 4 8 8 6 7 7
14 14 14 16 16 15 14 12 11 10 9 9 9 9 8 7 6 6 6 6 7 7 7 7 6 6 6 5 4 4 4 4 2 6 5 4 4 5 8 9 9 8 8
14 14 15 15 16 15 14 13 11 10 10 9 8 7 6 5 4 4 5 6 6 6 6 5 5 4 3 4 4 4 5 5 7 4 5 5 5 6 8 9 9 9 10
13 13 15 15 16 16 14 13 12 11 10 9 8 7 5 2 1 1 5 6 6 4 3 3 4 4 4 4 4 5 5 4 7 5 5 5 6 8 8 9 9 10 11
13 13 13 15 14 15 14 13 12 11 10 9 8 6 4 2 3 1 6 6 5 3 1 2 4 5 5 5 5 6 5 6 6 4 5 5 6 7 8 9 10 10 11
12 12 12 13 13 13 13 12 12 11 10 9 8 6 4 5 5 4 6 6 3 1 2 4 5 5 6 6 7 6 5 3 7 4 5 4 6 8 9 9 10 9 9
10 11 11 12 12 12 12 12 10 10 9 8 6 5 6 6 6 7 5 6 4 4 5 6 7 8 9 9 8 7 3 4 5 4 3 4 6 7 8 9 10 10 10
10 11 11 11 11 11 11 11 11 10 9 8 8 7 5 4 4 4 6 6 5 5 6 7 8 8 7 9 8 4 3 3 4 4 4 6 5 7 10 12 13 13 13
13 13 11 12 11 11 8 9 9 8 9 8 7 8 5 4 3 2 6 4 5 6 8 8 7 5 1 3 3 2 3 4 3 3 5 7 6 9 11 11 12 13 13
12 13 13 12 12 11 9 8 6 6 6 7 7 7 5 5 4 3 4 5 5 5 5 5 3 3 4 4 3 3 4 3 2 2 7 10 9 10 11 11 12 12 12
11 13 13 14 13 13 11 9 8 7 6 6 7 8 6 4 4 4 3 3 3 3 4 3 2 4 4 4 4 4 3 2 2 2 7 12 11 11 11 11 12 12 12
11 13 14 15 15 13 12 9 9 9 8 8 7 8 7 6 5 4 4 4 4 3 3 3 3 4 4 4 4 4 3 2 1 2 5 11 12 12 12 13 13 12 12
12 12 13 15 16 15 12 11 10 9 9 8 8 9 9 6 5 5 5 4 4 3 3 3 4 3 3 3 4 3 2 1 1 2 4 7 12 12 13 14 14 13 13
12 11 12 14 15 16 15 14 10 10 10 9 9 10 9 7 7 7 6 5 4 4 5 3 4 3 3 2 2 2 1 1 1 3 3 3 5 10 12 13 14 14 13
12 11 11 10 15 16 14 13 10 11 11 10 9 9 10 10 10 8 7 6 5 4 4 3 2 2 3 3 3 2 2 2 3 2 3 3 3 3 6 10 12 12 12
14 12 11 12 15 15 15 12 11 11 11 10 9 8 9 11 11 8 6 6 6 4 4 4 3 3 4 5 4 3 3 4 4 3 2 1 2 3 3 5 8 9 11
13 12 12 12 14 14 12 10 9 10 9 8 8 9 11 10 11 10 7 8 7 5 4 4 5 4 4 5 5 4 2 2 4 4 3 2 1 2 4 6 7 7 10
12 12 12 11 13 13 11 11 11 10 8 7 7 11 11 11 11 10 8 7 6 5 5 5 4 4 5 5 4 3 1 2 3 3 3 4 3 4 6 7 8 8 7
13 12 12 12 14 15 12 11 8 8 6 7 7 9 10 10 10 9 9 7 7 6 7 5 4 3 3 4 4 4 3 2 2 2 3 4 4 5 6 9 10 9 10
15 13 11 13 15 16 15 10 10 8 7 6 8 8 8 8 8 9 10 8 7 7 6 6 4 3 3 3 4 4 4 4 5 4 5 5 6 6 7 8 10 11 11
16 13 13 14 16 17 17 15 18 13 11 10 9 9 10 9 9 9 10 9 8 7 7 6 5 3 2 2 1 2 3 4 5 6 4 5 6 8 9 8 10 11 10
15 13 13 15 16 17 17 17 17 13 10 11 11 13 11 9 9 10 10 9 8 7 7 6 5 3 1 1 2 2 3 4 6 5 8 8 7 7 7 9 9 9 9
13 13 14 16 17 17 17 17 17 18 17 18 16 14 10 8 8 10 9 9 8 7 7 6 4 4 1 1 2 3 4 4 5 6 9 11 11 9 10 8 8 8 8
Wind_Direction
160 159 159 159 152 147 142 138 133 131 132 142 148 143 136 130 120 105 87 70 53 42 39 39 51 89 116 113 105 97 87 70 59 58 52 35 12 351 335 323 289 243 56
153 159 155 158 154 149 145 139 134 131 133 145 152 146 137 126 113 99 84 69 56 47 43 43 47 61 77 86 88 85 75 56 51 69 65 117 34 343 331 290 271 322 306
153 158 158 158 154 151 146 140 137 135 135 140 142 137 130 119 108 98 87 72 61 53 51 49 48 50 55 57 56 48 35 22 28 62 259 298 22 347 328 313 256 249 256
156 160 161 154 155 153 149 145 143 141 138 135 133 129 127 120 115 111 100 82 69 63 62 58 53 49 45 42 34 19 4 1 28 296 292 354 331 4 321 313 289 257 252
160 163 151 155 158 156 153 151 150 147 142 138 134 131 132 132 133 128 115 98 85 77 72 67 59 49 37 26 16 3 357 5 347 274 342 345 332 6 323 309 304 294 278
163 164 152 161 161 159 157 156 155 153 149 144 141 142 138 138 146 153 141 124 110 94 78 64 51 40 22 2 350 346 351 3 292 324 341 336 340 358 320 307 299 293 288
164 164 157 165 164 162 161 160 159 157 155 153 153 154 151 144 158 214 164 146 130 111 81 46 16 10 0 344 340 346 353 338 305 331 332 337 357 340 316 307 297 288 283
163 165 160 165 165 165 165 164 163 162 162 162 164 165 159 95 15 341 162 148 138 123 73 9 359 357 352 355 5 13 11 329 303 322 338 339 10 324 314 311 306 293 283
166 169 167 171 171 168 167 167 167 165 165 167 172 169 122 73 47 79 127 131 126 87 20 7 5 15 35 46 47 43 36 347 303 346 340 352 354 323 329 340 341 334 319
172 177 176 178 180 178 174 169 167 163 161 163 164 141 115 103 87 83 106 84 67 47 36 37 52 66 69 64 59 55 30 277 344 347 343 16 345 342 0 11 8 4 3
181 185 185 184 185 184 181 168 171 165 161 164 162 142 167 186 155 135 79 68 66 61 59 66 73 79 87 80 62 36 305 346 3 358 10 12 3 35 48 43 39 38 36
189 191 190 190 188 188 182 178 184 180 174 186 173 171 187 175 150 128 113 93 91 92 90 81 83 88 28 57 73 315 355 352 348 19 38 20 50 62 55 46 40 38 38
200 193 195 191 190 191 187 188 185 184 181 183 179 174 173 168 163 172 160 147 133 125 106 99 96 57 43 35 6 9 2 344 353 36 50 38 55 58 53 45 38 34 34
216 205 199 193 192 194 193 190 190 187 184 181 179 178 175 168 170 158 149 114 103 99 97 90 68 63 45 31 16 4 0 342 5 53 59 45 54 54 46 37 30 25 20
224 214 206 199 195 193 194 193 194 191 187 183 177 180 178 172 161 142 119 102 99 104 115 96 67 54 36 27 21 359 355 7 54 91 87 57 53 51 43 34 24 18 11
230 222 209 203 199 194 193 194 193 190 186 183 178 180 180 169 149 134 120 110 109 107 93 83 67 54 40 25 17 8 353 4 101 111 103 85 62 52 45 34 23 12 4
240 228 213 207 201 198 197 196 192 188 182 181 179 179 177 162 145 134 128 124 120 116 107 90 77 53 42 24 11 2 326 275 187 138 111 84 81 64 48 34 22 9 359
247 234 217 204 204 200 198 196 191 187 182 180 177 173 167 154 145 136 132 126 128 120 109 92 68 47 29 0 345 337 271 222 211 165 138 98 59 43 51 31 14 3 352
245 237 222 208 206 199 196 195 192 185 181 176 169 162 154 147 143 135 129 132 133 122 110 97 64 30 16 358 337 317 295 238 200 198 181 124 60 14 355 7 352 347 339
245 238 228 211 204 191 185 188 185 178 173 165 158 151 145 143 139 130 129 136 133 126 118 105 86 55 21 348 325 324 325 235 218 215 228 236 255 309 326 337 332 331 324
238 230 222 208 192 177 176 180 177 170 159 148 141 142 140 138 138 133 134 136 136 122 114 102 90 65 33 354 330 327 191 193 230 216 247 276 264 281 299 323 329 325 317
233 223 214 200 183 176 177 177 171 144 132 125 124 127 130 134 137 136 139 136 130 121 110 95 84 71 51 17 350 329 323 215 153 216 272 275 287 290 305 321 322 316 315
226 215 202 190 177 175 171 155 137 121 119 123 131 128 129 131 137 138 136 132 129 120 109 98 86 68 61 50 13 348 326 317 317 280 280 294 297 304 311 315 310 311 309
218 205 195 182 176 172 165 166 167 165 160 158 149 136 130 131 137 135 131 129 123 116 116 108 95 85 48 37 53 348 316 314 296 301 276 270 286 297 299 303 307 305 301
212 194 186 178 175 170 171 173 176 165 149 138 135 133 129 132 135 134 132 128 122 117 116 117 114 106 75 351 322 305 284 272 268 282 295 304 301 294 298 298 295 293 298
206 187 180 176 174 172 172 173 173 158 149 147 145 141 138 138 138 136 133 127 124 122 124 126 127 132 145 234 279 285 294 294 298 288 291 301 304 306 302 293 286 290 300